This is the latest recevied weather packets stored in our database for station/object OE9FWV. If no packets are shown the sender has not sent any weather packets the latest 10 day(s).
| Time | Temp. | Humidity | Pressure | Rain* | Wind** | Luminosity | Snow |
|---|---|---|---|---|---|---|---|
| 1777575003 | 14.44° C | 44% | 1021.8 hPa | 0 mm | - | - | - |
| 1777574399 | 14.44° C | 44% | 1021.7 hPa | 0 mm | - | - | - |
| 1777573799 | 15° C | 43% | 1021.5 hPa | 0 mm | - | - | - |
| 1777573200 | 15.56° C | 43% | 1021.4 hPa | 0 mm | - | - | - |
| 1777572592 | 16.11° C | 42% | 1021.3 hPa | 0 mm | - | - | - |
| 1777571988 | 16.67° C | 41% | 1021.2 hPa | 0 mm | - | - | - |
| 1777571386 | 17.22° C | 39% | 1021.1 hPa | 0 mm | - | - | - |
| 1777570786 | 17.78° C | 38% | 1021.1 hPa | 0 mm | - | - | - |
| 1777570183 | 18.33° C | 37% | 1021.1 hPa | 0 mm | - | - | - |
| 1777568975 | 18.89° C | 37% | 1021.1 hPa | 0 mm | - | - | - |
| 1777568376 | 18.89° C | 37% | 1020.9 hPa | 0 mm | - | - | - |
| 1777567773 | 19.44° C | 37% | 1021 hPa | 0 mm | - | - | - |
| 1777567166 | 19.44° C | 37% | 1020.9 hPa | 0 mm | - | - | - |
| 1777565355 | 20° C | 38% | 1020.8 hPa | 0 mm | - | - | - |
| 1777564153 | 20.56° C | 38% | 1020.5 hPa | 0 mm | - | - | - |
| 1777563553 | 20.56° C | 38% | 1020.6 hPa | 0 mm | - | - | - |
| 1777562943 | 20.56° C | 38% | 1020.5 hPa | 0 mm | - | - | - |
| 1777562334 | 20.56° C | 39% | 1020.5 hPa | 0 mm | - | - | - |
| 1777561115 | 21.11° C | 39% | 1020.4 hPa | 0 mm | - | - | - |
| 1777560512 | 20.56° C | 39% | 1020.4 hPa | 0 mm | - | - | - |
| 1777559305 | 21.11° C | 38% | 1020.4 hPa | 0 mm | - | - | - |
| 1777558103 | 20.56° C | 39% | 1020.5 hPa | 0 mm | - | - | - |
| 1777557499 | 21.11° C | 41% | 1020.7 hPa | 0 mm | - | - | - |
| 1777556293 | 21.11° C | 40% | 1020.7 hPa | 0 mm | - | - | - |
| 1777555691 | 20.56° C | 41% | 1020.6 hPa | 0 mm | - | - | - |
* Rain latest hour (hover to see other rain measurements)
** Current wind speed in m/s (hover to see current wind gust speed)